When you browse on this site, cookies collect data to enhance your experience and personalize the content and advertising you see.
Visit our Privacy Policy to learn more. By continuing to use the site, you agree to this use of cookies and data.
  • In United Kingdom
  • List of Countries
  • For 7 days
  • Water Temperature
  • Weather Map
  • Weather Widgets
  • user-avatar
    Login

    Hourly Weather Aberlour

    Today, 22 August, Thursday

    Time Temperature Precipitation Wind Pressure Humidity
    00:00 +9°C° 0 mm 3 mps 743 mmHg 91%
    01:00 +9°C° 0 mm 3 mps 743 mmHg 90%
    02:00 +8°C° 0 mm 3 mps 743 mmHg 90%
    03:00 +8°C° 0 mm 3 mps 743 mmHg 89%
    04:00 +8°C° 0 mm 3 mps 743 mmHg 89%
    05:00 +8°C° 0 mm 3 mps 743 mmHg 88%
    06:00 +8°C° 0 mm 4 mps 743 mmHg 88%
    07:00 +10°C° 0 mm 4 mps 743 mmHg 82%
    08:00 +12°C° 0 mm 5 mps 743 mmHg 75%
    09:00 +14°C° 0 mm 6 mps 743 mmHg 69%
    10:00 +14°C° 0 mm 6 mps 743 mmHg 66%
    11:00 +15°C° 0 mm 6 mps 742 mmHg 64%
    12:00 +16°C° 0 mm 7 mps 742 mmHg 61%
    13:00 +16°C° 0 mm 6 mps 742 mmHg 64%
    14:00 +16°C° 0 mm 6 mps 742 mmHg 67%
    15:00 +16°C° 0 mm 6 mps 742 mmHg 70%
    16:00 +16°C° 0 mm 6 mps 741 mmHg 74%
    17:00 +16°C° 0 mm 5 mps 741 mmHg 77%
    18:00 +17°C° 0 mm 4 mps 741 mmHg 80%
    19:00 +14°C° 0 mm 4 mps 742 mmHg 85%
    20:00 +13°C° 0 mm 3 mps 742 mmHg 89%
    21:00 +12°C° 0 mm 3 mps 743 mmHg 94%
    22:00 +13°C° 0 mm 3 mps 743 mmHg 93%
    23:00 +13°C° 0 mm 3 mps 743 mmHg 93%

    Tomorrow, 23 August, Friday

    Time Temperature Precipitation Wind Pressure Humidity
    00:00 +15°C° 0 mm 2 mps 743 mmHg 93%
    01:00 +15°C° 0.1 mm 2 mps 743 mmHg 92%
    02:00 +15°C° 0.1 mm 2 mps 743 mmHg 91%
    03:00 +15°C° 0.1 mm 2 mps 744 mmHg 90%
    04:00 +14°C° 0.1 mm 3 mps 744 mmHg 90%
    05:00 +14°C° 0.1 mm 3 mps 744 mmHg 90%
    06:00 +14°C° 0.1 mm 4 mps 744 mmHg 89%
    07:00 +15°C° 0.1 mm 4 mps 745 mmHg 86%
    08:00 +15°C° 0.1 mm 5 mps 745 mmHg 83%
    09:00 +16°C° 0.1 mm 5 mps 746 mmHg 80%
    10:00 +17°C° 0 mm 5 mps 746 mmHg 74%
    11:00 +19°C° 0 mm 5 mps 746 mmHg 69%
    12:00 +20°C° 0 mm 4 mps 746 mmHg 63%
    13:00 +20°C° 0 mm 4 mps 747 mmHg 62%
    14:00 +20°C° 0 mm 4 mps 747 mmHg 61%
    15:00 +20°C° 0 mm 3 mps 747 mmHg 60%
    16:00 +20°C° 0 mm 3 mps 747 mmHg 64%
    17:00 +19°C° 0 mm 2 mps 747 mmHg 69%
    18:00 +19°C° 0 mm 2 mps 747 mmHg 73%
    19:00 +18°C° 0 mm 2 mps 747 mmHg 77%
    20:00 +16°C° 0 mm 2 mps 747 mmHg 80%
    21:00 +15°C° 0 mm 2 mps 747 mmHg 84%
    22:00 +15°C° 0 mm 2 mps 747 mmHg 84%
    23:00 +15°C° 0 mm 2 mps 747 mmHg 85%

    Day after tomorrow, 24 August, Saturday

    Time Temperature Precipitation Wind Pressure Humidity
    00:00 +15°C° 0 mm 2 mps 747 mmHg 85%
    01:00 +15°C° 0 mm 2 mps 746 mmHg 87%
    02:00 +15°C° 0 mm 2 mps 746 mmHg 89%
    03:00 +15°C° 0 mm 2 mps 746 mmHg 91%
    04:00 +14°C° 0 mm 3 mps 746 mmHg 91%
    05:00 +14°C° 0 mm 3 mps 746 mmHg 91%
    06:00 +14°C° 0 mm 3 mps 745 mmHg 91%
    07:00 +16°C° 0 mm 3 mps 746 mmHg 83%
    08:00 +17°C° 0 mm 3 mps 746 mmHg 75%
    09:00 +18°C° 0 mm 4 mps 746 mmHg 67%
    10:00 +19°C° 0 mm 4 mps 746 mmHg 64%
    11:00 +20°C° 0 mm 3 mps 746 mmHg 60%
    12:00 +20°C° 0 mm 3 mps 746 mmHg 57%
    13:00 +21°C° 0 mm 3 mps 746 mmHg 58%
    14:00 +21°C° 0 mm 3 mps 746 mmHg 60%
    15:00 +22°C° 0 mm 3 mps 746 mmHg 61%
    16:00 +21°C° 0.1 mm 3 mps 746 mmHg 67%
    17:00 +20°C° 0.1 mm 2 mps 746 mmHg 73%
    18:00 +19°C° 0.1 mm 2 mps 745 mmHg 79%
    19:00 +18°C° 0 mm 2 mps 746 mmHg 82%
    20:00 +17°C° 0 mm 2 mps 746 mmHg 85%
    21:00 +16°C° 0 mm 2 mps 746 mmHg 88%
    22:00 +16°C° 0 mm 2 mps 746 mmHg 87%
    23:00 +16°C° 0 mm 2 mps 746 mmHg 86%

    25 August, Sunday

    Time Temperature Precipitation Wind Pressure Humidity
    00:00 +16°C° 0 mm 1 mps 746 mmHg 86%
    01:00 +16°C° 0 mm 1 mps 746 mmHg 84%
    02:00 +16°C° 0 mm 1 mps 746 mmHg 82%
    03:00 +16°C° 0 mm 1 mps 746 mmHg 80%
    04:00 +16°C° 0 mm 1 mps 746 mmHg 79%
    05:00 +16°C° 0 mm 1 mps 746 mmHg 79%
    06:00 +16°C° 0 mm 1 mps 746 mmHg 79%
    07:00 +18°C° 0 mm 1 mps 746 mmHg 76%
    08:00 +19°C° 0 mm 1 mps 747 mmHg 73%
    09:00 +20°C° 0 mm 1 mps 747 mmHg 71%
    10:00 +20°C° 0 mm 1 mps 747 mmHg 70%
    11:00 +21°C° 0 mm 1 mps 747 mmHg 70%
    12:00 +20°C° 0 mm 2 mps 747 mmHg 70%
    13:00 +21°C° 0 mm 2 mps 746 mmHg 66%
    14:00 +23°C° 0 mm 2 mps 746 mmHg 62%
    15:00 +24°C° 0 mm 3 mps 746 mmHg 59%
    16:00 +23°C° 0 mm 2 mps 745 mmHg 64%
    17:00 +21°C° 0 mm 2 mps 745 mmHg 70%
    18:00 +21°C° 0 mm 2 mps 745 mmHg 76%
    19:00 +19°C° 0 mm 2 mps 744 mmHg 81%
    20:00 +18°C° 0 mm 2 mps 744 mmHg 86%
    21:00 +16°C° 0 mm 2 mps 744 mmHg 91%
    22:00 +16°C° 0 mm 2 mps 744 mmHg 91%
    23:00 +16°C° 0 mm 2 mps 744 mmHg 91%

    26 August, Monday

    Time Temperature Precipitation Wind Pressure Humidity
    00:00 +16°C° 0 mm 3 mps 743 mmHg 92%
    01:00 +16°C° 0 mm 3 mps 743 mmHg 90%
    02:00 +16°C° 0 mm 3 mps 742 mmHg 88%
    03:00 +16°C° 0 mm 3 mps 742 mmHg 85%
    04:00 +16°C° 0 mm 3 mps 742 mmHg 83%
    05:00 +17°C° 0 mm 4 mps 742 mmHg 80%
    06:00 +17°C° 0 mm 4 mps 742 mmHg 77%
    07:00 +17°C° 0 mm 4 mps 743 mmHg 76%
    08:00 +17°C° 0 mm 5 mps 743 mmHg 76%
    09:00 +17°C° 0 mm 5 mps 744 mmHg 76%
    10:00 +19°C° 0 mm 5 mps 744 mmHg 73%
    11:00 +19°C° 0 mm 5 mps 745 mmHg 71%
    12:00 +20°C° 0 mm 6 mps 745 mmHg 68%
    13:00 +21°C° 0 mm 5 mps 745 mmHg 67%
    14:00 +21°C° 0 mm 5 mps 745 mmHg 67%
    15:00 +22°C° 0 mm 4 mps 746 mmHg 66%
    16:00 +21°C° 0 mm 3 mps 746 mmHg 70%
    17:00 +21°C° 0 mm 3 mps 745 mmHg 74%
    18:00 +20°C° 0 mm 2 mps 745 mmHg 78%
    19:00 +20°C° 0 mm 3 mps 745 mmHg 81%
    20:00 +19°C° 0 mm 3 mps 745 mmHg 83%
    21:00 +18°C° 0 mm 4 mps 745 mmHg 86%
    22:00 +18°C° 0 mm 4 mps 745 mmHg 86%
    23:00 +19°C° 0 mm 4 mps 745 mmHg 87%

    27 August, Tuesday

    Time Temperature Precipitation Wind Pressure Humidity
    00:00 +19°C° 0 mm 4 mps 745 mmHg 87%
    01:00 +18°C° 0 mm 4 mps 745 mmHg 89%
    02:00 +18°C° 0 mm 3 mps 744 mmHg 90%
    03:00 +17°C° 0 mm 3 mps 744 mmHg 92%
    04:00 +17°C° 0 mm 3 mps 744 mmHg 92%
    05:00 +17°C° 0 mm 3 mps 744 mmHg 91%
    06:00 +17°C° 0 mm 3 mps 744 mmHg 91%
    07:00 +18°C° 0 mm 3 mps 744 mmHg 84%
    08:00 +20°C° 0 mm 4 mps 744 mmHg 77%
    09:00 +21°C° 0 mm 4 mps 745 mmHg 70%
    10:00 +22°C° 0 mm 4 mps 744 mmHg 65%
    11:00 +23°C° 0 mm 4 mps 744 mmHg 59%
    12:00 +25°C° 0 mm 4 mps 744 mmHg 54%
    13:00 +25°C° 0 mm 4 mps 744 mmHg 55%
    14:00 +25°C° 0 mm 4 mps 743 mmHg 56%
    15:00 +25°C° 0 mm 3 mps 743 mmHg 58%
    16:00 +24°C° 0 mm 3 mps 743 mmHg 63%
    17:00 +22°C° 0 mm 3 mps 743 mmHg 68%
    18:00 +21°C° 0 mm 3 mps 743 mmHg 74%
    19:00 +20°C° 0 mm 2 mps 743 mmHg 78%
    20:00 +18°C° 0 mm 2 mps 743 mmHg 82%
    21:00 +18°C° 0 mm 1 mps 743 mmHg 86%
    22:00 +18°C° 0 mm 1 mps 742 mmHg 86%
    23:00 +18°C° 0 mm 1 mps 742 mmHg 87%
    Show more